Tracking 29892 objects as of 21-Nov-2024
HD Live streaming from Space Station
objects crossing your sky now

COSMOS 1275 DEB

Track COSMOS 1275 DEB now!
10-day predictions


NORAD ID: 18601
Int'l Code: 1981-053MB
Perigee: 804.3 km
Apogee: 881.0 km
Inclination: 82.8 °
Period: 101.6 minutes
Semi major axis: 7213 km
RCS: 0.0081 m2 (small)
Launch date: June 4, 1981
Source: Commonwealth of Independent States (former USSR) (CIS)
Launch site: PLESETSK MISSILE AND SPACE COMPLEX (PKMTR)

Note: This is SATELLITE DEBRIS
Your satellite tracking list
Your tracking list is empty




NASA's NSSDC Master Catalog

Two Line Element Set (TLE):
1 18601U 81053LW  24324.41296209  .00005721  00000-0  28004-2 0  9992
2 18601  82.7856 126.1596 0053150  59.9038 328.7102 14.16995290899557
Source of the keplerian elements: AFSPC